0 HST 1 20580U 90037B 26162.21026604 .00005021 00000-0 15696-3 0 9990 2 20580 28.4707 121.4212 0001970 81.6673 278.4146 15.30680019787654 0 ISS (ZARYA) 1 25544U 98067A 26162.12593356 .00002535 00000-0 53892-4 0 9997 2 25544 51.6353 330.0904 0005092 172.2857 187.8210 15.49161426570819 0 CXO 1 25867U 99040B 26164.08641897 .00000611 00000-0 00000+0 0 9999 2 25867 56.1211 116.7320 7849026 310.2825 0.0985 0.37806491 17304